Overview Statistics Trail Chart Weather Telemetry Raw packets
 

This is the latest recevied weather packets stored in our database for station/object S58I-10. If no packets are shown the sender has not sent any weather packets the latest 10 day(s).

<< 1 2 >>
Time Temp. Humidity Pressure Rain* Wind** Luminosity Snow
1788418582 26.67° C 46% 1023.9 hPa - - - -
1788417682 26.67° C 45% 1023.9 hPa - - - -
1788416782 26.67° C 46% 1023.9 hPa - - - -
1788415885 27.22° C 43% 1023.9 hPa - - - -
1788414985 22.22° C 57% 1023.7 hPa - - - -
1788358534 28.89° C 42% 1020.9 hPa - - - -
1788357634 25° C 50% 1020.8 hPa - - - -
1788333063 27.78° C 42% 1024 hPa - - - -
1788332203 27.22° C 42% 1024 hPa - - - -
1788331302 27.22° C 42% 1024 hPa - - - -
1788330402 27.78° C 40% 1023.9 hPa - - - -
1788329506 21.11° C 55% 1023.9 hPa - - - -
1788276136 28.89° C 46% 1021.1 hPa - - - -
1788275240 28.89° C 46% 1021.1 hPa - - - -
1788274322 28.89° C 46% 1021.3 hPa - - - -
1788273421 28.89° C 46% 1021.4 hPa - - - -
1788272521 28.89° C 46% 1021.5 hPa - - - -
1788272274 28.89° C 45% 1021.5 hPa - - - -
1788271374 28.89° C 46% 1021.5 hPa - - - -
1788270474 28.89° C 46% 1021.6 hPa - - - -
1788269573 31.67° C 40% 1021.6 hPa - - - -
1788269253 29.44° C 45% 1021.7 hPa - - - -
1788269223 29.44° C 45% 1021.7 hPa - - - -
1788268587 28.89° C 45% 1021.9 hPa - - - -
1788267686 29.44° C 45% 1021.9 hPa - - - -

* Rain since midnight (hover to see other rain measurements)
** Current wind speed in m/s (hover to see current wind gust speed)